Weather History for Du Bois, PA

Change the Weather History Date:

Monday, February 4, 2013

  Actual Average Record
Temperature  
Mean Temperature 16 °F 24 °F  
Max Temperature 20 °F 32 °F 55 °F (1991)
Min Temperature 12 °F 17 °F -9 °F (1996)
Degree Days  
Heating Degree Days 49 40  
Month to date heating degree days 202 163  
Since 1 July heating degree days 3783 4107  
Cooling Degree Days 0 0  
Month to date cooling degree days 0 0  
Year to date cooling degree days 0 0  
Moisture  
Dew Point 12 °F    
Average Humidity 76    
Maximum Humidity 91    
Minimum Humidity 61    
Precipitation  
Precipitation T in 0.08 in 1.19 in (1997)
Month to date precipitation 0.04 0.32  
Sea Level Pressure  
Sea Level Pressure 29.90 in    
Wind  
Wind Speed 7 mph (WSW)    
Max Wind Speed 22 mph    
Max Gust Speed 29 mph    
Visibility 4 miles    
Events Snow    
T = Trace of Precipitation, MM = Missing Value Source: NWS Daily Summary

Daily Weather History Graph

Daily Weather History Graph

Search for Another Location

Airport:

Trip Planner

Search our weather history database for the weather conditions in past years. The results will help you decide how hot, cold, wet, or windy it might be!

Date:

Astronomy

Feb. 04, 2013 Rise Set
Actual Time 7:23 AM EST 5:36 PM EST
Civil Twilight 6:54 AM EST 6:05 PM EST
Nautical Twilight 6:21 AM EST 6:38 PM EST
Astronomical Twilight 5:49 AM EST 7:10 PM EST
Moon 1:57 AM EST (2/4) 11:57 AM EST (2/4)
Length of Visible Light 11h 11m
Length of Day
10h 13m
Last Quarter, 37% of the Moon is Illuminated
Feb 4
Last Quarter
Feb 10
New
Feb 17
First Quarter
Feb 25
Full
Mar 4
Last Quarter

Hourly Weather History & Observations

Time (EST) Temp. Windchill Dew Point Humidity Pressure Visibility Wind Dir Wind Speed Gust Speed Precip Events Conditions
12:08 AM 14.0 °F -3.9 °F 10.4 °F 86% 29.85 in 2.0 mi West 20.7 mph 26.5 mph 0.00 in Snow Light Snow
12:53 AM 14.0 °F -2.5 °F 8.6 °F 79% 29.85 in 3.0 mi West 17.3 mph 28.8 mph 0.00 in   Haze
12:56 AM 14.0 °F -3.0 °F 9.0 °F 80% 29.94 in 4.0 mi West 18.4 mph 28.8 mph 0.00 in   Haze
1:56 AM 12.9 °F -4.4 °F 9.0 °F 84% 29.95 in 2.5 mi WSW 18.4 mph 26.5 mph 0.00 in Snow Light Snow
2:23 AM 12.2 °F -4.8 °F 8.6 °F 85% 29.86 in 3.0 mi WSW 17.3 mph 26.5 mph 0.00 in Snow Light Snow
2:37 AM 12.2 °F -4.3 °F 8.6 °F 85% 29.87 in 4.0 mi West 16.1 mph 23.0 mph 0.00 in   Overcast
2:56 AM 12.9 °F -3.9 °F 8.1 °F 81% 29.96 in 4.0 mi West 17.3 mph 23.0 mph 0.00 in   Haze
3:08 AM 12.2 °F -3.1 °F 8.6 °F 85% 29.87 in 3.0 mi West 13.8 mph 25.3 mph N/A   Overcast
3:19 AM 12.2 °F -4.8 °F 8.6 °F 85% 29.87 in 2.5 mi WSW 17.3 mph 24.2 mph 0.00 in Snow Light Snow
3:33 AM 12.2 °F -3.1 °F 8.6 °F 85% 29.88 in 3.0 mi West 13.8 mph - 0.00 in   Overcast
3:48 AM 12.2 °F -5.8 °F 8.6 °F 85% 29.88 in 2.5 mi WSW 19.6 mph 25.3 mph 0.00 in Snow Light Snow
3:56 AM 12.9 °F -3.4 °F 9.0 °F 84% 29.98 in 2.0 mi West 16.1 mph 24.2 mph 0.00 in Snow Light Snow
4:05 AM 12.2 °F -5.3 °F 8.6 °F 85% 29.89 in 1.8 mi West 18.4 mph 25.3 mph 0.00 in Snow Light Snow
4:21 AM 12.2 °F -3.7 °F 8.6 °F 85% 29.89 in 1.5 mi WSW 15.0 mph - 0.00 in Snow Light Snow
5:56 AM 12.0 °F -5.1 °F 6.1 °F 77% 30.01 in 5.0 mi West 17.3 mph 25.3 mph N/A   Haze
6:16 AM 12.2 °F -2.5 °F 6.8 °F 79% 29.91 in 10.0 mi West 12.7 mph 19.6 mph N/A   Overcast
6:27 AM 12.2 °F -3.1 °F 6.8 °F 79% 29.91 in 6.0 mi West 13.8 mph - N/A   Haze
6:56 AM 12.0 °F -1.3 °F 7.0 °F 80% 30.03 in 7.0 mi West 10.4 mph - N/A   Overcast
7:39 AM 12.2 °F -1.0 °F 8.6 °F 85% 29.93 in 2.5 mi WSW 10.4 mph - N/A   Overcast
7:52 AM 12.2 °F -0.2 °F 8.6 °F 85% 29.93 in 4.0 mi WSW 9.2 mph - N/A   Overcast
7:56 AM 12.0 °F -0.4 °F 9.0 °F 88% 30.02 in 5.0 mi WSW 9.2 mph - N/A   Overcast
8:37 AM 12.2 °F -0.2 °F 8.6 °F 85% 29.92 in 1.8 mi WSW 9.2 mph - N/A   Overcast
8:56 AM 12.9 °F -0.2 °F 9.0 °F 84% 30.02 in 1.8 mi SW 10.4 mph - N/A   Overcast
9:06 AM 12.2 °F -0.2 °F 8.6 °F 85% 29.92 in 2.0 mi SW 9.2 mph - N/A   Overcast
9:21 AM 12.2 °F -2.5 °F 8.6 °F 85% 29.91 in 3.0 mi WSW 12.7 mph 18.4 mph N/A   Haze
9:56 AM 15.1 °F 0.5 °F 8.1 °F 74% 30.01 in 5.0 mi WSW 13.8 mph 20.7 mph N/A   Haze
10:40 AM 17.6 °F 5.7 °F 8.6 °F 68% 29.90 in 10.0 mi West 10.4 mph 21.9 mph N/A   Overcast
10:56 AM 17.1 °F 3.0 °F 8.1 °F 68% 29.99 in 10.0 mi West 13.8 mph 24.2 mph N/A   Mostly Cloudy
11:56 AM 18.0 °F 4.8 °F 7.0 °F 62% 29.97 in 10.0 mi West 12.7 mph 20.7 mph N/A   Overcast
12:15 PM 17.6 °F 3.7 °F 8.6 °F 68% 29.88 in 10.0 mi West 13.8 mph 20.7 mph N/A   Overcast
12:34 PM 17.6 °F 3.7 °F 8.6 °F 68% 29.87 in 10.0 mi WSW 13.8 mph - N/A   Overcast
12:56 PM 19.0 °F 5.0 °F 10.0 °F 68% 29.95 in 9.0 mi WSW 15.0 mph - N/A   Overcast
1:35 PM 19.4 °F 7.2 °F 10.4 °F 68% 29.85 in 2.5 mi WSW 11.5 mph - 0.00 in Snow Light Snow
1:51 PM 19.4 °F 7.2 °F 12.2 °F 74% 29.85 in 1.5 mi WSW 11.5 mph - 0.00 in Snow Light Snow
1:56 PM 19.0 °F 6.8 °F 12.0 °F 74% 29.94 in 1.8 mi WSW 11.5 mph - 0.00 in Snow Light Snow
2:56 PM 19.0 °F 8.2 °F 14.0 °F 81% 29.93 in 1.2 mi WSW 9.2 mph - 0.00 in Snow Light Snow
3:09 PM 19.4 °F 11.5 °F 15.8 °F 86% 29.84 in 0.8 mi WSW 5.8 mph - 0.00 in Snow Light Snow
3:39 PM 19.4 °F 14.3 °F 15.8 °F 86% 29.83 in 1.0 mi WSW 3.5 mph - 0.00 in Snow Light Snow
3:56 PM 19.9 °F 13.4 °F 16.0 °F 85% 29.91 in 1.0 mi WSW 4.6 mph - 0.00 in Snow Light Snow
4:54 PM 19.4 °F 9.5 °F 15.8 °F 86% 29.81 in 1.2 mi WSW 8.1 mph - 0.00 in Snow Light Snow
4:56 PM 19.9 °F 11.1 °F 16.0 °F 85% 29.90 in 1.2 mi SW 6.9 mph - 0.00 in Snow Light Snow
5:56 PM 19.9 °F 14.9 °F 17.1 °F 89% 29.89 in 2.5 mi SSW 3.5 mph - 0.00 in Snow Light Snow
6:36 PM 19.4 °F - 17.6 °F 93% 29.80 in 1.5 mi Calm Calm - 0.00 in Snow Light Snow
6:56 PM 19.9 °F - 17.1 °F 89% 29.90 in 2.5 mi Calm Calm - 0.00 in Snow Light Snow
7:56 PM 19.9 °F - 18.0 °F 92% 29.90 in 3.0 mi Calm Calm - 0.00 in Snow Light Snow
8:27 PM 19.4 °F - 17.6 °F 93% 29.80 in 4.0 mi Calm Calm - N/A   Overcast
8:56 PM 19.9 °F - 18.0 °F 92% 29.89 in 4.0 mi Calm Calm - N/A   Overcast
9:06 PM 19.4 °F - 17.6 °F 93% 29.80 in 2.0 mi Calm Calm - 0.00 in Snow Light Snow
9:20 PM 19.4 °F - 17.6 °F 93% 29.80 in 4.0 mi Calm Calm - 0.00 in   Overcast
9:56 PM 19.9 °F - 18.0 °F 92% 29.89 in 4.0 mi Calm Calm - 0.00 in   Overcast
10:15 PM 19.4 °F - 17.6 °F 93% 29.80 in 2.5 mi Calm Calm - 0.00 in Snow Light Snow
10:56 PM 19.9 °F - 18.0 °F 92% 29.88 in 3.0 mi Calm Calm - 0.00 in   Overcast
11:09 PM 19.4 °F - 17.6 °F 93% 29.80 in 3.0 mi Calm Calm - N/A   Overcast
11:56 PM 19.9 °F - 18.0 °F 92% 29.87 in 4.0 mi Calm Calm - N/A   Overcast